When you browse on this site, cookies collect data to enhance your experience and personalize the content and advertising you see.
Visit our Privacy Policy to learn more. By continuing to use the site, you agree to this use of cookies and data.
  • In Spain
  • List of Countries
  • For 7 days
  • Water Temperature
  • Satellite Maps
  • Weather Map
  • Weather Widgets
  • user-avatar
    Login

    Hourly Weather Singapore

    Today, 19 December, Wednesday

    Time Temperature Precipitation Wind Pressure Humidity
    00:00 +28°C° 0 mm 2 mps 758 mmHg 80%
    01:00 +28°C° 0 mm 2 mps 758 mmHg 82%
    02:00 +28°C° 0.1 mm 2 mps 758 mmHg 82%
    03:00 +28°C° 0.1 mm 2 mps 757 mmHg 83%
    04:00 +28°C° 0.1 mm 2 mps 757 mmHg 84%
    05:00 +28°C° 0 mm 2 mps 758 mmHg 83%
    06:00 +28°C° 0 mm 2 mps 758 mmHg 83%
    07:00 +29°C° 0 mm 2 mps 758 mmHg 80%
    08:00 +30°C° 0.2 mm 1 mps 758 mmHg 74%
    09:00 +32°C° 0.2 mm 1 mps 758 mmHg 68%
    10:00 +33°C° 0.2 mm 1 mps 759 mmHg 61%
    11:00 +34°C° 0 mm 1 mps 758 mmHg 59%
    12:00 +35°C° 0 mm 1 mps 758 mmHg 56%
    13:00 +36°C° 0 mm 1 mps 758 mmHg 52%
    14:00 +35°C° 0.5 mm 1 mps 758 mmHg 55%
    15:00 +34°C° 0.5 mm 1 mps 757 mmHg 58%
    16:00 +33°C° 0.5 mm 1 mps 757 mmHg 61%
    17:00 +32°C° 0.1 mm 1 mps 757 mmHg 66%
    18:00 +31°C° 0.1 mm 1 mps 757 mmHg 72%
    19:00 +30°C° 0.1 mm 1 mps 758 mmHg 77%
    20:00 +29°C° 0 mm 2 mps 758 mmHg 79%
    21:00 +29°C° 0 mm 2 mps 758 mmHg 80%
    22:00 +29°C° 0 mm 3 mps 759 mmHg 82%
    23:00 +29°C° 0 mm 3 mps 758 mmHg 82%

    Tomorrow, 20 December, Thursday

    Time Temperature Precipitation Wind Pressure Humidity
    00:00 +28°C° 0 mm 3 mps 758 mmHg 83%
    01:00 +28°C° 0 mm 3 mps 758 mmHg 83%
    02:00 +28°C° 0 mm 3 mps 758 mmHg 83%
    03:00 +28°C° 0 mm 3 mps 757 mmHg 84%
    04:00 +28°C° 0 mm 3 mps 757 mmHg 84%
    05:00 +28°C° 0.3 mm 3 mps 757 mmHg 85%
    06:00 +28°C° 0.3 mm 3 mps 757 mmHg 85%
    07:00 +28°C° 0.3 mm 3 mps 758 mmHg 86%
    08:00 +30°C° 0.3 mm 3 mps 758 mmHg 80%
    09:00 +31°C° 0.3 mm 3 mps 758 mmHg 74%
    10:00 +33°C° 0.3 mm 3 mps 758 mmHg 68%
    11:00 +34°C° 0 mm 3 mps 758 mmHg 63%
    12:00 +35°C° 0 mm 2 mps 757 mmHg 59%
    13:00 +36°C° 0 mm 2 mps 757 mmHg 54%
    14:00 +35°C° 0.8 mm 2 mps 756 mmHg 59%
    15:00 +35°C° 0.8 mm 2 mps 756 mmHg 63%
    16:00 +34°C° 0.8 mm 2 mps 755 mmHg 68%
    17:00 +32°C° 0.2 mm 2 mps 755 mmHg 73%
    18:00 +31°C° 0.2 mm 2 mps 756 mmHg 77%
    19:00 +29°C° 0.2 mm 2 mps 756 mmHg 82%
    20:00 +29°C° 0 mm 2 mps 756 mmHg 83%
    21:00 +29°C° 0 mm 2 mps 757 mmHg 84%
    22:00 +29°C° 0 mm 3 mps 757 mmHg 86%
    23:00 +29°C° 0 mm 3 mps 757 mmHg 86%

    Day after tomorrow, 21 December, Friday

    Time Temperature Precipitation Wind Pressure Humidity
    00:00 +28°C° 0 mm 3 mps 757 mmHg 86%
    01:00 +28°C° 0 mm 3 mps 756 mmHg 86%
    02:00 +28°C° 0 mm 3 mps 756 mmHg 86%
    03:00 +28°C° 0 mm 3 mps 756 mmHg 86%
    04:00 +28°C° 0 mm 3 mps 756 mmHg 85%
    05:00 +28°C° 0.2 mm 3 mps 756 mmHg 85%
    06:00 +28°C° 0.2 mm 3 mps 756 mmHg 84%
    07:00 +28°C° 0.2 mm 2 mps 757 mmHg 83%
    08:00 +30°C° 0.3 mm 3 mps 757 mmHg 77%
    09:00 +31°C° 0.3 mm 3 mps 758 mmHg 71%
    10:00 +33°C° 0.3 mm 3 mps 758 mmHg 65%
    11:00 +34°C° 0.1 mm 3 mps 757 mmHg 62%
    12:00 +35°C° 0.1 mm 3 mps 757 mmHg 59%
    13:00 +35°C° 0.1 mm 3 mps 756 mmHg 56%
    14:00 +35°C° 0.4 mm 3 mps 756 mmHg 60%
    15:00 +34°C° 0.4 mm 3 mps 755 mmHg 64%
    16:00 +33°C° 0.4 mm 3 mps 754 mmHg 68%
    17:00 +31°C° 1.1 mm 3 mps 755 mmHg 73%
    18:00 +30°C° 1.1 mm 3 mps 756 mmHg 78%
    19:00 +29°C° 1.1 mm 3 mps 756 mmHg 83%
    20:00 +29°C° 0.4 mm 3 mps 757 mmHg 84%
    21:00 +29°C° 0.4 mm 2 mps 757 mmHg 84%
    22:00 +28°C° 0.4 mm 2 mps 758 mmHg 85%
    23:00 +28°C° 0.6 mm 2 mps 757 mmHg 86%

    22 December, Saturday

    Time Temperature Precipitation Wind Pressure Humidity
    00:00 +28°C° 0.6 mm 2 mps 757 mmHg 87%
    01:00 +28°C° 0.6 mm 2 mps 756 mmHg 88%
    02:00 +28°C° 0.2 mm 3 mps 756 mmHg 88%
    03:00 +28°C° 0.2 mm 3 mps 755 mmHg 89%
    04:00 +27°C° 0.2 mm 3 mps 755 mmHg 90%
    05:00 +27°C° 0.4 mm 3 mps 755 mmHg 89%
    06:00 +28°C° 0.4 mm 3 mps 756 mmHg 89%
    07:00 +28°C° 0.4 mm 3 mps 756 mmHg 88%
    08:00 +29°C° 0.2 mm 3 mps 757 mmHg 82%
    09:00 +30°C° 0.2 mm 3 mps 757 mmHg 76%
    10:00 +33°C° 0.2 mm 3 mps 758 mmHg 70%
    11:00 +33°C° 0.2 mm 3 mps 757 mmHg 66%
    12:00 +34°C° 0.2 mm 3 mps 757 mmHg 62%
    13:00 +35°C° 0.2 mm 3 mps 756 mmHg 58%
    14:00 +34°C° 0.1 mm 2 mps 755 mmHg 60%
    15:00 +34°C° 0.1 mm 2 mps 755 mmHg 61%
    16:00 +34°C° 0.1 mm 2 mps 754 mmHg 63%
    17:00 +31°C° 0.1 mm 2 mps 755 mmHg 69%
    18:00 +30°C° 0.1 mm 2 mps 756 mmHg 74%
    19:00 +29°C° 0.1 mm 2 mps 756 mmHg 80%
    20:00 +29°C° 0 mm 2 mps 757 mmHg 81%
    21:00 +29°C° 0 mm 2 mps 757 mmHg 83%
    22:00 +28°C° 0 mm 2 mps 758 mmHg 84%
    23:00 +28°C° 0 mm 2 mps 757 mmHg 85%

    23 December, Sunday

    Time Temperature Precipitation Wind Pressure Humidity
    00:00 +28°C° 0 mm 2 mps 757 mmHg 86%
    01:00 +28°C° 0 mm 2 mps 756 mmHg 87%
    02:00 +27°C° 0 mm 2 mps 756 mmHg 88%
    03:00 +27°C° 0 mm 2 mps 756 mmHg 88%
    04:00 +27°C° 0 mm 2 mps 756 mmHg 89%
    05:00 +27°C° 0 mm 2 mps 756 mmHg 88%
    06:00 +27°C° 0 mm 2 mps 757 mmHg 87%
    07:00 +28°C° 0 mm 2 mps 757 mmHg 85%
    08:00 +29°C° 0.1 mm 2 mps 758 mmHg 77%
    09:00 +31°C° 0.1 mm 1 mps 758 mmHg 68%
    10:00 +33°C° 0.1 mm 1 mps 758 mmHg 59%
    11:00 +34°C° 0 mm 1 mps 757 mmHg 57%
    12:00 +34°C° 0 mm 1 mps 756 mmHg 54%
    13:00 +35°C° 0 mm 1 mps 756 mmHg 52%
    14:00 +34°C° 0.2 mm 1 mps 755 mmHg 54%
    15:00 +34°C° 0.2 mm 1 mps 755 mmHg 57%
    16:00 +33°C° 0.2 mm 1 mps 754 mmHg 59%
    17:00 +32°C° 0 mm 1 mps 755 mmHg 64%
    18:00 +31°C° 0 mm 1 mps 755 mmHg 68%
    19:00 +30°C° 0 mm 1 mps 756 mmHg 72%
    20:00 +29°C° 0 mm 1 mps 756 mmHg 74%
    21:00 +29°C° 0 mm 1 mps 757 mmHg 75%
    22:00 +29°C° 0 mm 1 mps 757 mmHg 76%
    23:00 +29°C° 0.1 mm 1 mps 757 mmHg 78%

    24 December, Monday

    Time Temperature Precipitation Wind Pressure Humidity
    00:00 +28°C° 0.1 mm 1 mps 756 mmHg 79%
    01:00 +28°C° 0.1 mm 2 mps 756 mmHg 80%
    02:00 +28°C° 0.1 mm 2 mps 755 mmHg 80%
    03:00 +28°C° 0.1 mm 2 mps 755 mmHg 81%
    04:00 +28°C° 0.1 mm 2 mps 755 mmHg 81%
    05:00 +28°C° 0 mm 2 mps 755 mmHg 80%
    06:00 +28°C° 0 mm 2 mps 756 mmHg 80%
    07:00 +28°C° 0 mm 2 mps 756 mmHg 79%
    08:00 +30°C° 0.2 mm 2 mps 757 mmHg 74%
    09:00 +31°C° 0.2 mm 3 mps 757 mmHg 69%
    10:00 +33°C° 0.2 mm 3 mps 757 mmHg 64%
    11:00 +34°C° 0.3 mm 3 mps 757 mmHg 61%
    12:00 +35°C° 0.3 mm 3 mps 756 mmHg 58%
    13:00 +35°C° 0.3 mm 4 mps 755 mmHg 55%
    14:00 +35°C° 0.1 mm 4 mps 755 mmHg 56%
    15:00 +35°C° 0.1 mm 4 mps 754 mmHg 56%
    16:00 +35°C° 0.1 mm 4 mps 754 mmHg 57%
    17:00 +33°C° 0.1 mm 3 mps 754 mmHg 62%
    18:00 +31°C° 0.1 mm 3 mps 755 mmHg 68%
    19:00 +30°C° 0.1 mm 3 mps 755 mmHg 73%
    20:00 +30°C° 0.4 mm 2 mps 756 mmHg 75%
    21:00 +29°C° 0.4 mm 2 mps 756 mmHg 77%
    22:00 +29°C° 0.4 mm 2 mps 756 mmHg 79%
    23:00 +29°C° 0.1 mm 2 mps 756 mmHg 79%
    Show more